{"data":{"norad_id":63041,"epoch":"2026-09-21T17:21:32.872896Z","epoch_age_seconds":59892,"freshness":"FRESH","line1":"1 63041U 25034N   26264.72329714  .00010594  00000+0  35251-3 0  9990","line2":"2 63041  53.1618  67.3405 0001216  90.7494 269.3647 15.31714076 89108","mean_motion":15.31714076,"eccentricity":0.0001216,"inclination_deg":53.1618,"raan_deg":67.3405,"arg_perigee_deg":90.7494,"mean_anomaly_deg":269.3647,"bstar":0.00035251,"rev_number":8910,"period_min":94.012324007656,"perigee_km":469.86521738309,"apogee_km":471.53085406378,"semimajor_km":6848.8350357234,"source":"CELESTRAK","updated_at":"2026-09-22T09:00:49.746226Z"}}